Location: Sevilla
(37.3933°N, 5.9839°W)
Time: 05:36:40
(UTC+02:00)

Transit 2A Rocket - Pass Details

Date: 01 July 2024
Orbit: 582 x 910 km, 66.7° (Epoch: 15 July)

Event Time Altitude Azimuth Distance (km) Brightness Sun altitude
Rises 05:16:02 0° 334° (NNW) 3,533 8.8 -17.7°
Reaches altitude 10° 05:18:35 10° 338° (NNW) 2,599 8.1 -17.4°
Maximum altitude 05:24:39 64° 60° (ENE) 997 5.8 -16.6°
Drops below altitude 10° 05:30:33 10° 141° (SE) 2,529 7.6 -15.8°
Sets 05:33:00 0° 145° (SE) 3,432 8.3 -15.5°
